Year,Month,Day,Hour,Minute,Value (Times are PST for temperature in C)
2012,08,14,00,00,15.60
2012,08,14,00,01,15.60
2012,08,14,00,02,15.70
2012,08,14,00,03,15.70
2012,08,14,00,04,15.70
2012,08,14,00,05,15.70
2012,08,14,00,06,15.70
2012,08,14,00,07,15.60
2012,08,14,00,08,15.60
2012,08,14,00,09,15.60
2012,08,14,00,10,15.60
2012,08,14,00,11,15.60
2012,08,14,00,12,15.60
2012,08,14,00,13,15.60
2012,08,14,00,14,15.60
2012,08,14,00,15,15.60
2012,08,14,00,16,15.60
2012,08,14,00,17,15.60
2012,08,14,00,18,15.60
2012,08,14,00,19,15.50
2012,08,14,00,20,15.50
2012,08,14,00,21,15.50
2012,08,14,00,22,15.50
2012,08,14,00,23,15.50
2012,08,14,00,24,15.40
2012,08,14,00,25,15.40
2012,08,14,00,26,15.40
2012,08,14,00,27,15.30
2012,08,14,00,28,15.30
2012,08,14,00,29,15.30
2012,08,14,00,30,15.30
2012,08,14,00,31,15.30
2012,08,14,00,32,15.30
2012,08,14,00,33,15.30
2012,08,14,00,34,15.30
2012,08,14,00,35,15.30
2012,08,14,00,36,15.30
2012,08,14,00,37,15.30
2012,08,14,00,38,15.30
2012,08,14,00,39,15.30
2012,08,14,00,40,15.30
2012,08,14,00,41,15.30
2012,08,14,00,42,15.30
2012,08,14,00,43,15.30
2012,08,14,00,44,15.30
2012,08,14,00,45,15.30
2012,08,14,00,46,15.30
2012,08,14,00,47,15.30
2012,08,14,00,48,15.30
2012,08,14,00,49,15.30
2012,08,14,00,50,15.30
2012,08,14,00,51,15.30
2012,08,14,00,52,15.30
2012,08,14,00,53,15.30
2012,08,14,00,54,15.30
2012,08,14,00,55,15.30
2012,08,14,00,56,15.30
2012,08,14,00,57,15.30
2012,08,14,00,58,15.30
2012,08,14,00,59,15.30
2012,08,14,01,00,15.30
2012,08,14,01,01,15.30
2012,08,14,01,02,15.30
2012,08,14,01,03,15.30
2012,08,14,01,04,15.30
2012,08,14,01,05,15.30
2012,08,14,01,06,15.30
2012,08,14,01,07,15.30
2012,08,14,01,08,15.30
2012,08,14,01,09,15.30
2012,08,14,01,10,15.20
2012,08,14,01,11,15.20
2012,08,14,01,12,15.20
2012,08,14,01,13,15.20
2012,08,14,01,14,15.20
2012,08,14,01,15,15.20
2012,08,14,01,16,15.20
2012,08,14,01,17,15.20
2012,08,14,01,18,15.20
2012,08,14,01,19,15.20
2012,08,14,01,20,15.20
2012,08,14,01,21,15.20
2012,08,14,01,22,15.20
2012,08,14,01,23,15.20
2012,08,14,01,24,15.20
2012,08,14,01,25,15.20
2012,08,14,01,26,15.20
2012,08,14,01,27,15.30
2012,08,14,01,28,15.30
2012,08,14,01,29,15.30
2012,08,14,01,30,15.30
2012,08,14,01,31,15.30
2012,08,14,01,32,15.30
2012,08,14,01,33,15.30
2012,08,14,01,34,15.30
2012,08,14,01,35,15.30
2012,08,14,01,36,15.30
2012,08,14,01,37,15.20
2012,08,14,01,38,15.20
2012,08,14,01,39,15.10
2012,08,14,01,40,15.10
2012,08,14,01,41,15.00
2012,08,14,01,42,15.00
2012,08,14,01,43,14.90
2012,08,14,01,44,14.90
2012,08,14,01,45,14.80
2012,08,14,01,46,14.80
2012,08,14,01,47,14.80
2012,08,14,01,48,14.80
2012,08,14,01,49,14.80
2012,08,14,01,50,14.80
2012,08,14,01,51,14.80
2012,08,14,01,52,14.80
2012,08,14,01,53,14.80
2012,08,14,01,54,14.80
2012,08,14,01,55,14.80
2012,08,14,01,56,14.80
2012,08,14,01,57,14.80
2012,08,14,01,58,14.80
2012,08,14,01,59,14.80
2012,08,14,02,00,14.80
2012,08,14,02,01,14.80
2012,08,14,02,02,14.80
2012,08,14,02,03,14.80
2012,08,14,02,04,14.80
2012,08,14,02,05,14.80
2012,08,14,02,06,14.80
2012,08,14,02,07,14.80
2012,08,14,02,08,14.80
2012,08,14,02,09,14.80
2012,08,14,02,10,14.80
2012,08,14,02,11,14.80
2012,08,14,02,12,14.80
2012,08,14,02,13,14.80
2012,08,14,02,14,14.80
2012,08,14,02,15,14.80
2012,08,14,02,16,14.80
2012,08,14,02,17,14.80
2012,08,14,02,18,14.80
2012,08,14,02,19,14.80
2012,08,14,02,20,14.80
2012,08,14,02,21,14.80
2012,08,14,02,22,14.80
2012,08,14,02,23,14.80
2012,08,14,02,24,14.80
2012,08,14,02,25,14.80
2012,08,14,02,26,14.80
2012,08,14,02,27,14.80
2012,08,14,02,28,14.80
2012,08,14,02,29,14.80
2012,08,14,02,30,14.80
2012,08,14,02,31,14.80
2012,08,14,02,32,14.80
2012,08,14,02,33,14.80
2012,08,14,02,34,14.80
2012,08,14,02,35,14.80
2012,08,14,02,36,14.80
2012,08,14,02,37,14.80
2012,08,14,02,38,14.80
2012,08,14,02,39,14.80
2012,08,14,02,40,14.80
2012,08,14,02,41,14.80
2012,08,14,02,42,14.80
2012,08,14,02,43,14.80
2012,08,14,02,44,14.80
2012,08,14,02,45,14.80
2012,08,14,02,46,14.80
2012,08,14,02,47,14.80
2012,08,14,02,48,14.80
2012,08,14,02,49,14.80
2012,08,14,02,50,14.80
2012,08,14,02,51,14.80
2012,08,14,02,52,14.70
2012,08,14,02,53,14.70
2012,08,14,02,54,14.70
2012,08,14,02,55,14.60
2012,08,14,02,56,14.60
2012,08,14,02,57,14.60
2012,08,14,02,58,14.60
2012,08,14,02,59,14.50
2012,08,14,03,00,14.50
2012,08,14,03,01,14.50
2012,08,14,03,02,14.50
2012,08,14,03,03,14.50
2012,08,14,03,04,14.50
2012,08,14,03,05,14.40
2012,08,14,03,06,14.40
2012,08,14,03,07,14.40
2012,08,14,03,08,14.50
2012,08,14,03,09,14.50
2012,08,14,03,10,14.50
2012,08,14,03,11,14.50
2012,08,14,03,12,14.50
2012,08,14,03,13,14.50
2012,08,14,03,14,14.60
2012,08,14,03,15,14.60
2012,08,14,03,16,14.60
2012,08,14,03,17,14.60
2012,08,14,03,18,14.60
2012,08,14,03,19,14.60
2012,08,14,03,20,14.60
2012,08,14,03,21,14.60
2012,08,14,03,22,14.70
2012,08,14,03,23,14.70
2012,08,14,03,24,14.60
2012,08,14,03,25,14.60
2012,08,14,03,26,14.60
2012,08,14,03,27,14.60
2012,08,14,03,28,14.60
2012,08,14,03,29,14.60
2012,08,14,03,30,14.60
2012,08,14,03,31,14.60
2012,08,14,03,32,14.50
2012,08,14,03,33,14.50
2012,08,14,03,34,14.50
2012,08,14,03,35,14.50
2012,08,14,03,36,14.50
2012,08,14,03,37,14.50
2012,08,14,03,38,14.50
2012,08,14,03,39,14.50
2012,08,14,03,40,14.50
2012,08,14,03,41,14.50
2012,08,14,03,42,14.50
2012,08,14,03,43,14.50
2012,08,14,03,44,14.50
2012,08,14,03,45,14.50
2012,08,14,03,46,14.50
2012,08,14,03,47,14.50
2012,08,14,03,48,14.50
2012,08,14,03,49,14.50
2012,08,14,03,50,14.50
2012,08,14,03,51,14.50
2012,08,14,03,52,14.50
2012,08,14,03,53,14.50
2012,08,14,03,54,14.50
2012,08,14,03,55,14.50
2012,08,14,03,56,14.50
2012,08,14,03,57,14.50
2012,08,14,03,58,14.50
2012,08,14,03,59,14.50
2012,08,14,04,00,14.50
2012,08,14,04,01,14.50
2012,08,14,04,02,14.50
2012,08,14,04,03,14.50
2012,08,14,04,04,14.50
2012,08,14,04,05,14.50
2012,08,14,04,06,14.40
2012,08,14,04,07,14.40
2012,08,14,04,08,14.40
2012,08,14,04,09,14.40
2012,08,14,04,10,14.40
2012,08,14,04,11,14.30
2012,08,14,04,12,14.30
2012,08,14,04,13,14.30
2012,08,14,04,14,14.30
2012,08,14,04,15,14.30
2012,08,14,04,16,14.30
2012,08,14,04,17,14.30
2012,08,14,04,18,14.40
2012,08,14,04,19,14.40
2012,08,14,04,20,14.40
2012,08,14,04,21,14.40
2012,08,14,04,22,14.30
2012,08,14,04,23,14.30
2012,08,14,04,24,14.30
2012,08,14,04,25,14.30
2012,08,14,04,26,14.20
2012,08,14,04,27,14.20
2012,08,14,04,28,14.20
2012,08,14,04,29,14.20
2012,08,14,04,30,14.20
2012,08,14,04,31,14.20
2012,08,14,04,32,14.20
2012,08,14,04,33,14.20
2012,08,14,04,34,14.20
2012,08,14,04,35,14.20
2012,08,14,04,36,14.20
2012,08,14,04,37,14.20
2012,08,14,04,38,14.20
2012,08,14,04,39,14.20
2012,08,14,04,40,14.20
2012,08,14,04,41,14.20
2012,08,14,04,42,14.20
2012,08,14,04,43,14.20
2012,08,14,04,44,14.20
2012,08,14,04,45,14.10
2012,08,14,04,46,14.10
2012,08,14,04,47,14.10
2012,08,14,04,48,14.10
2012,08,14,04,49,14.10
2012,08,14,04,50,14.10
2012,08,14,04,51,14.10
2012,08,14,04,52,14.00
2012,08,14,04,53,14.00
2012,08,14,04,54,14.00
2012,08,14,04,55,14.00
2012,08,14,04,56,14.00
2012,08,14,04,57,13.90
2012,08,14,04,58,13.90
2012,08,14,04,59,13.90
2012,08,14,05,00,13.90
2012,08,14,05,01,13.80
2012,08,14,05,02,13.80
2012,08,14,05,03,13.70
2012,08,14,05,04,13.70
2012,08,14,05,05,13.70
2012,08,14,05,06,13.70
2012,08,14,05,07,13.70
2012,08,14,05,08,13.70
2012,08,14,05,09,13.70
2012,08,14,05,10,13.70
2012,08,14,05,11,13.70
2012,08,14,05,12,13.70
2012,08,14,05,13,13.70
2012,08,14,05,14,13.70
2012,08,14,05,15,13.70
2012,08,14,05,16,13.70
2012,08,14,05,17,13.70
2012,08,14,05,18,13.70
2012,08,14,05,19,13.70
2012,08,14,05,20,13.70
2012,08,14,05,21,13.80
2012,08,14,05,22,13.80
2012,08,14,05,23,13.80
2012,08,14,05,24,13.80
2012,08,14,05,25,13.80
2012,08,14,05,26,13.80
2012,08,14,05,27,13.80
2012,08,14,05,28,13.80
2012,08,14,05,29,13.80
2012,08,14,05,30,13.80
2012,08,14,05,31,13.80
2012,08,14,05,32,13.80
2012,08,14,05,33,13.80
2012,08,14,05,34,13.80
2012,08,14,05,35,13.90
2012,08,14,05,36,13.90
2012,08,14,05,37,13.90
2012,08,14,05,38,13.90
2012,08,14,05,39,13.80
2012,08,14,05,40,13.80
2012,08,14,05,41,13.80
2012,08,14,05,42,13.80
2012,08,14,05,43,13.70
2012,08,14,05,44,13.70
2012,08,14,05,45,13.70
2012,08,14,05,46,13.70
2012,08,14,05,47,13.70
2012,08,14,05,48,13.70
2012,08,14,05,49,13.70
2012,08,14,05,50,13.70
2012,08,14,05,51,13.70
2012,08,14,05,52,13.70
2012,08,14,05,53,13.70
2012,08,14,05,54,13.70
2012,08,14,05,55,13.70
2012,08,14,05,56,13.70
2012,08,14,05,57,13.70
2012,08,14,05,58,13.70
2012,08,14,05,59,13.70
2012,08,14,06,00,13.70
2012,08,14,06,01,13.70
2012,08,14,06,02,13.70
2012,08,14,06,03,13.70
2012,08,14,06,04,13.70
2012,08,14,06,05,13.70
2012,08,14,06,06,13.70
2012,08,14,06,07,13.70
2012,08,14,06,08,13.70
2012,08,14,06,09,13.70
2012,08,14,06,10,13.70
2012,08,14,06,11,13.70
2012,08,14,06,12,13.70
2012,08,14,06,13,13.70
2012,08,14,06,14,13.70
2012,08,14,06,15,13.70
2012,08,14,06,16,13.70
2012,08,14,06,17,13.70
2012,08,14,06,18,13.70
2012,08,14,06,19,13.70
2012,08,14,06,20,13.70
2012,08,14,06,21,13.70
2012,08,14,06,22,13.70
2012,08,14,06,23,13.70
2012,08,14,06,24,13.70
2012,08,14,06,25,13.70
2012,08,14,06,26,13.70
2012,08,14,06,27,13.70
2012,08,14,06,28,13.70
2012,08,14,06,29,13.70
2012,08,14,06,30,13.70
2012,08,14,06,31,13.70
2012,08,14,06,32,13.70
2012,08,14,06,33,13.80
2012,08,14,06,34,13.80
2012,08,14,06,35,13.80
2012,08,14,06,36,13.80
2012,08,14,06,37,13.80
2012,08,14,06,38,13.90
2012,08,14,06,39,13.90
2012,08,14,06,40,13.90
2012,08,14,06,41,13.90
2012,08,14,06,42,13.90
2012,08,14,06,43,13.90
2012,08,14,06,44,14.00
2012,08,14,06,45,14.00
2012,08,14,06,46,14.00
2012,08,14,06,47,14.00
2012,08,14,06,48,14.10
2012,08,14,06,49,14.10
2012,08,14,06,50,14.10
2012,08,14,06,51,14.10
2012,08,14,06,52,14.10
2012,08,14,06,53,14.10
2012,08,14,06,54,14.20
2012,08,14,06,55,14.20
2012,08,14,06,56,14.20
2012,08,14,06,57,14.20
2012,08,14,06,58,14.20
2012,08,14,06,59,14.30
2012,08,14,07,00,14.30
2012,08,14,07,01,14.40
2012,08,14,07,02,14.40
2012,08,14,07,03,14.50
2012,08,14,07,04,14.50
2012,08,14,07,05,14.50
2012,08,14,07,06,14.50
2012,08,14,07,07,14.50
2012,08,14,07,08,14.60
2012,08,14,07,09,14.60
2012,08,14,07,10,14.60
2012,08,14,07,11,14.60
2012,08,14,07,12,14.60
2012,08,14,07,13,14.60
2012,08,14,07,14,14.60
2012,08,14,07,15,14.60
2012,08,14,07,16,14.60
2012,08,14,07,17,14.60
2012,08,14,07,18,14.60
2012,08,14,07,19,14.70
2012,08,14,07,20,14.70
2012,08,14,07,21,14.80
2012,08,14,07,22,14.80
2012,08,14,07,23,14.80
2012,08,14,07,24,14.90
2012,08,14,07,25,14.90
2012,08,14,07,26,14.90
2012,08,14,07,27,15.00
2012,08,14,07,28,15.00
2012,08,14,07,29,15.10
2012,08,14,07,30,15.10
2012,08,14,07,31,15.20
2012,08,14,07,32,15.20
2012,08,14,07,33,15.20
2012,08,14,07,34,15.30
2012,08,14,07,35,15.30
2012,08,14,07,36,15.40
2012,08,14,07,37,15.40
2012,08,14,07,38,15.50
2012,08,14,07,39,15.50
2012,08,14,07,40,15.60
2012,08,14,07,41,15.60
2012,08,14,07,42,15.60
2012,08,14,07,43,15.60
2012,08,14,07,44,15.60
2012,08,14,07,45,15.70
2012,08,14,07,46,15.70
2012,08,14,07,47,15.80
2012,08,14,07,48,15.80
2012,08,14,07,49,15.80
2012,08,14,07,50,15.80
2012,08,14,07,51,15.90
2012,08,14,07,52,15.90
2012,08,14,07,53,16.00
2012,08,14,07,54,16.10
2012,08,14,07,55,16.10
2012,08,14,07,56,16.10
2012,08,14,07,57,16.10
2012,08,14,07,58,16.10
2012,08,14,07,59,16.10
2012,08,14,08,00,16.20
2012,08,14,08,01,16.20
2012,08,14,08,02,16.30
2012,08,14,08,03,16.30
2012,08,14,08,04,16.40
2012,08,14,08,05,16.40
2012,08,14,08,06,16.40
2012,08,14,08,07,16.40
2012,08,14,08,08,16.40
2012,08,14,08,09,16.40
2012,08,14,08,10,16.40
2012,08,14,08,11,16.40
2012,08,14,08,12,16.40
2012,08,14,08,13,16.30
2012,08,14,08,14,16.30
2012,08,14,08,15,16.30
2012,08,14,08,16,16.30
2012,08,14,08,17,16.30
2012,08,14,08,18,16.30
2012,08,14,08,19,16.30
2012,08,14,08,20,16.40
2012,08,14,08,21,16.40
2012,08,14,08,22,16.40
2012,08,14,08,23,16.40
2012,08,14,08,24,16.40
2012,08,14,08,25,16.40
2012,08,14,08,26,16.40
2012,08,14,08,27,16.40
2012,08,14,08,28,16.40
2012,08,14,08,29,16.40
2012,08,14,08,30,16.40
2012,08,14,08,31,16.40
2012,08,14,08,32,16.40
2012,08,14,08,33,16.40
2012,08,14,08,34,16.40
2012,08,14,08,35,16.40
2012,08,14,08,36,16.40
2012,08,14,08,37,16.40
2012,08,14,08,38,16.40
2012,08,14,08,39,16.40
2012,08,14,08,40,16.40
2012,08,14,08,41,16.40
2012,08,14,08,42,16.60
2012,08,14,08,43,16.60
2012,08,14,08,44,16.60
2012,08,14,08,45,16.70
2012,08,14,08,46,16.70
2012,08,14,08,47,16.70
2012,08,14,08,48,16.80
2012,08,14,08,49,16.90
2012,08,14,08,50,16.90
2012,08,14,08,51,17.00
2012,08,14,08,52,17.00
2012,08,14,08,53,17.10
2012,08,14,08,54,17.10
2012,08,14,08,55,17.10
2012,08,14,08,56,17.20
2012,08,14,08,57,17.20
2012,08,14,08,58,17.20
2012,08,14,08,59,17.20
2012,08,14,09,00,17.30
2012,08,14,09,01,17.30
2012,08,14,09,02,17.30
2012,08,14,09,03,17.30
2012,08,14,09,04,17.40
2012,08,14,09,05,17.40
2012,08,14,09,06,17.40
2012,08,14,09,07,17.50
2012,08,14,09,08,17.50
2012,08,14,09,09,17.60
2012,08,14,09,10,17.60
2012,08,14,09,11,17.70
2012,08,14,09,12,17.70
2012,08,14,09,13,17.70
2012,08,14,09,14,17.70
2012,08,14,09,15,17.70
2012,08,14,09,16,17.80
2012,08,14,09,17,17.80
2012,08,14,09,18,17.80
2012,08,14,09,19,17.80
2012,08,14,09,20,17.80
2012,08,14,09,21,17.80
2012,08,14,09,22,17.80
2012,08,14,09,23,17.80
2012,08,14,09,24,17.90
2012,08,14,09,25,17.90
2012,08,14,09,26,17.90
2012,08,14,09,27,17.90
2012,08,14,09,28,17.80
2012,08,14,09,29,17.80
2012,08,14,09,30,17.80
2012,08,14,09,31,17.90
2012,08,14,09,32,17.90
2012,08,14,09,33,17.90
2012,08,14,09,34,17.90
2012,08,14,09,35,18.00
2012,08,14,09,36,18.10
2012,08,14,09,37,18.10
2012,08,14,09,38,18.10
2012,08,14,09,39,18.20
2012,08,14,09,40,18.20
2012,08,14,09,41,18.20
2012,08,14,09,42,18.20
2012,08,14,09,43,18.20
2012,08,14,09,44,18.30
2012,08,14,09,45,18.30
2012,08,14,09,46,18.40
2012,08,14,09,47,18.40
2012,08,14,09,48,18.40
2012,08,14,09,49,18.50
2012,08,14,09,50,18.50
2012,08,14,09,51,18.60
2012,08,14,09,52,18.60
2012,08,14,09,53,18.60
2012,08,14,09,54,18.70
2012,08,14,09,55,18.70
2012,08,14,09,56,18.70
2012,08,14,09,57,18.70
2012,08,14,09,58,18.70
2012,08,14,09,59,18.70
2012,08,14,10,00,18.70
2012,08,14,10,01,18.70
2012,08,14,10,02,18.70
2012,08,14,10,03,18.70
2012,08,14,10,04,18.70
2012,08,14,10,05,18.80
2012,08,14,10,06,18.80
2012,08,14,10,07,18.80
2012,08,14,10,08,18.70
2012,08,14,10,09,18.80
2012,08,14,10,10,18.80
2012,08,14,10,11,18.90
2012,08,14,10,12,18.90
2012,08,14,10,13,18.90
2012,08,14,10,14,19.00
2012,08,14,10,15,19.10
2012,08,14,10,16,19.10
2012,08,14,10,17,19.10
2012,08,14,10,18,19.10
2012,08,14,10,19,19.10
2012,08,14,10,20,19.10
2012,08,14,10,21,19.10
2012,08,14,10,22,19.00
2012,08,14,10,23,18.90
2012,08,14,10,24,18.80
2012,08,14,10,25,18.70
2012,08,14,10,26,18.60
2012,08,14,10,27,18.50
2012,08,14,10,28,18.40
2012,08,14,10,29,18.20
2012,08,14,10,30,18.10
2012,08,14,10,31,18.00
2012,08,14,10,32,17.90
2012,08,14,10,33,17.90
2012,08,14,10,34,17.90
2012,08,14,10,35,17.90
2012,08,14,10,36,17.90
2012,08,14,10,37,17.90
2012,08,14,10,38,17.90
2012,08,14,10,39,18.00
2012,08,14,10,40,18.10
2012,08,14,10,41,18.20
2012,08,14,10,42,18.20
2012,08,14,10,43,18.30
2012,08,14,10,44,18.40
2012,08,14,10,45,18.40
2012,08,14,10,46,18.50
2012,08,14,10,47,18.50
2012,08,14,10,48,18.50
2012,08,14,10,49,18.50
2012,08,14,10,50,18.50
2012,08,14,10,51,18.50
2012,08,14,10,52,18.60
2012,08,14,10,53,18.60
2012,08,14,10,54,18.70
2012,08,14,10,55,18.70
2012,08,14,10,56,18.70
2012,08,14,10,57,18.70
2012,08,14,10,58,18.70
2012,08,14,10,59,18.80
2012,08,14,11,00,18.90
2012,08,14,11,01,19.00
2012,08,14,11,02,19.10
2012,08,14,11,03,19.20
2012,08,14,11,04,19.30
2012,08,14,11,05,19.30
2012,08,14,11,06,19.30
2012,08,14,11,07,19.20
2012,08,14,11,08,19.30
2012,08,14,11,09,19.30
2012,08,14,11,10,19.30
2012,08,14,11,11,19.30
2012,08,14,11,12,19.30
2012,08,14,11,13,19.40
2012,08,14,11,14,19.30
2012,08,14,11,15,19.30
2012,08,14,11,16,19.20
2012,08,14,11,17,19.10
2012,08,14,11,18,19.20
2012,08,14,11,19,19.30
2012,08,14,11,20,19.30
2012,08,14,11,21,19.40
2012,08,14,11,22,19.40
2012,08,14,11,23,19.40
2012,08,14,11,24,19.30
2012,08,14,11,25,19.20
2012,08,14,11,26,19.30
2012,08,14,11,27,19.40
2012,08,14,11,28,19.40
2012,08,14,11,29,19.50
2012,08,14,11,30,19.60
2012,08,14,11,31,19.70
2012,08,14,11,32,19.80
2012,08,14,11,33,19.90
2012,08,14,11,34,20.00
2012,08,14,11,35,20.10
2012,08,14,11,36,20.20
2012,08,14,11,37,20.30
2012,08,14,11,38,20.40
2012,08,14,11,39,20.50
2012,08,14,11,40,20.50
2012,08,14,11,41,20.50
2012,08,14,11,42,20.60
2012,08,14,11,43,20.70
2012,08,14,11,44,20.80
2012,08,14,11,45,21.00
2012,08,14,11,46,21.10
2012,08,14,11,47,21.30
2012,08,14,11,48,21.40
2012,08,14,11,49,21.50
2012,08,14,11,50,21.60
2012,08,14,11,51,21.60
2012,08,14,11,52,21.70
2012,08,14,11,53,21.80
2012,08,14,11,54,21.90
2012,08,14,11,55,22.00
2012,08,14,11,56,22.00
2012,08,14,11,57,22.10
2012,08,14,11,58,22.10
2012,08,14,11,59,22.10
2012,08,14,12,00,22.10
2012,08,14,12,01,22.10
2012,08,14,12,02,22.20
2012,08,14,12,03,22.20
2012,08,14,12,04,22.20
2012,08,14,12,05,22.30
2012,08,14,12,06,22.30
2012,08,14,12,07,22.20
2012,08,14,12,08,22.10
2012,08,14,12,09,22.10
2012,08,14,12,10,22.10
2012,08,14,12,11,22.00
2012,08,14,12,12,21.90
2012,08,14,12,13,22.00
2012,08,14,12,14,22.10
2012,08,14,12,15,22.20
2012,08,14,12,16,22.40
2012,08,14,12,17,22.50
2012,08,14,12,18,22.50
2012,08,14,12,19,22.50
2012,08,14,12,20,22.60
2012,08,14,12,21,22.70
2012,08,14,12,22,22.80
2012,08,14,12,23,22.90
2012,08,14,12,24,22.90
2012,08,14,12,25,22.90
2012,08,14,12,26,22.90
2012,08,14,12,27,23.00
2012,08,14,12,28,23.10
2012,08,14,12,29,23.10
2012,08,14,12,30,23.10
2012,08,14,12,31,23.20
2012,08,14,12,32,23.10
2012,08,14,12,33,23.00
2012,08,14,12,34,22.90
2012,08,14,12,35,22.90
2012,08,14,12,36,22.90
2012,08,14,12,37,22.90
2012,08,14,12,38,23.10
2012,08,14,12,39,23.20
2012,08,14,12,40,23.30
2012,08,14,12,41,23.30
2012,08,14,12,42,23.30
2012,08,14,12,43,23.30
2012,08,14,12,44,23.30
2012,08,14,12,45,23.40
2012,08,14,12,46,23.30
2012,08,14,12,47,23.30
2012,08,14,12,48,23.30
2012,08,14,12,49,23.40
2012,08,14,12,50,23.50
2012,08,14,12,51,23.60
2012,08,14,12,52,23.60
2012,08,14,12,53,23.60
2012,08,14,12,54,23.60
2012,08,14,12,55,23.60
2012,08,14,12,56,23.70
2012,08,14,12,57,23.70
2012,08,14,12,58,23.80
2012,08,14,12,59,23.80
2012,08,14,13,00,23.80
2012,08,14,13,01,23.80
2012,08,14,13,02,23.80
2012,08,14,13,03,23.80
2012,08,14,13,04,23.90
2012,08,14,13,05,24.10
2012,08,14,14,13,22.60
2012,08,14,14,14,22.60
2012,08,14,14,15,22.60
2012,08,14,14,16,22.50
2012,08,14,14,17,22.50
2012,08,14,14,18,22.50
2012,08,14,14,19,22.50
2012,08,14,14,20,22.50
2012,08,14,14,21,22.50
2012,08,14,14,22,22.40
2012,08,14,14,23,22.40
2012,08,14,14,24,22.40
2012,08,14,14,25,22.30
2012,08,14,14,26,22.30
2012,08,14,14,27,22.40
2012,08,14,14,28,22.50
2012,08,14,14,29,22.60
2012,08,14,14,30,22.70
2012,08,14,14,31,22.70
2012,08,14,14,32,22.60
2012,08,14,14,33,22.50
2012,08,14,14,34,22.40
2012,08,14,14,35,22.30
2012,08,14,14,36,22.20
2012,08,14,14,37,22.20
2012,08,14,14,38,22.20
2012,08,14,14,39,22.30
2012,08,14,14,40,22.30
2012,08,14,14,41,22.40
2012,08,14,14,42,22.50
2012,08,14,14,43,22.50
2012,08,14,14,44,22.50
2012,08,14,14,45,22.60
2012,08,14,14,46,22.70
2012,08,14,14,47,22.70
2012,08,14,14,48,22.80
2012,08,14,14,49,22.80
2012,08,14,14,50,22.80
2012,08,14,14,51,22.80
2012,08,14,14,52,22.80
2012,08,14,14,53,22.80
2012,08,14,14,54,22.80
2012,08,14,14,55,22.80
2012,08,14,14,56,22.80
2012,08,14,14,57,22.70
2012,08,14,14,58,22.70
2012,08,14,14,59,22.70
2012,08,14,15,00,22.70
2012,08,14,15,01,22.70
2012,08,14,15,02,22.80
2012,08,14,15,03,22.80
2012,08,14,15,04,22.80
2012,08,14,15,05,22.80
2012,08,14,15,06,22.70
2012,08,14,15,07,22.60
2012,08,14,15,08,22.50
2012,08,14,15,09,22.40
2012,08,14,15,10,22.50
2012,08,14,15,11,22.50
2012,08,14,15,12,22.60
2012,08,14,15,13,22.50
2012,08,14,15,14,22.60
2012,08,14,15,15,22.60
2012,08,14,15,16,22.80
2012,08,14,15,17,22.90
2012,08,14,15,18,22.90
2012,08,14,15,19,23.10
2012,08,14,15,20,23.20
2012,08,14,15,21,23.30
2012,08,14,15,22,23.30
2012,08,14,15,23,23.30
2012,08,14,15,24,23.20
2012,08,14,15,25,23.10
2012,08,14,15,26,23.00
2012,08,14,15,27,22.90
2012,08,14,15,28,22.80
2012,08,14,15,29,22.80
2012,08,14,15,30,22.80
2012,08,14,15,31,22.80
2012,08,14,15,32,22.90
2012,08,14,15,33,23.00
2012,08,14,15,34,23.10
2012,08,14,15,35,23.20
2012,08,14,15,36,23.30
2012,08,14,15,37,23.30
2012,08,14,15,38,23.20
2012,08,14,15,39,23.10
2012,08,14,15,40,23.10
2012,08,14,15,41,23.00
2012,08,14,15,42,23.00
2012,08,14,15,43,23.10
2012,08,14,15,44,23.20
2012,08,14,15,45,23.30
2012,08,14,15,46,23.40
2012,08,14,15,47,23.40
2012,08,14,15,48,23.40
2012,08,14,15,49,23.30
2012,08,14,15,50,23.30
2012,08,14,15,51,23.20
2012,08,14,15,52,23.20
2012,08,14,15,53,23.20
2012,08,14,15,54,23.10
2012,08,14,15,55,23.10
2012,08,14,15,56,23.10
2012,08,14,15,57,23.10
2012,08,14,15,58,23.20
2012,08,14,15,59,23.30
2012,08,14,16,00,23.40
2012,08,14,16,01,23.60
2012,08,14,16,02,23.70
2012,08,14,16,03,23.70
2012,08,14,16,04,23.70
2012,08,14,16,05,23.80
2012,08,14,16,06,23.90
2012,08,14,16,07,23.90
2012,08,14,16,08,23.90
2012,08,14,16,09,23.80
2012,08,14,16,10,23.80
2012,08,14,16,11,23.70
2012,08,14,16,12,23.70
2012,08,14,16,13,23.70
2012,08,14,16,14,23.70
2012,08,14,16,15,23.70
2012,08,14,16,16,23.70
2012,08,14,16,17,23.70
2012,08,14,16,18,23.70
2012,08,14,16,19,23.60
2012,08,14,16,20,23.60
2012,08,14,16,21,23.70
2012,08,14,16,22,23.70
2012,08,14,16,23,23.70
2012,08,14,16,24,23.80
2012,08,14,16,25,23.80
2012,08,14,16,26,23.80
2012,08,14,16,27,23.80
2012,08,14,16,28,23.90
2012,08,14,16,29,24.00
2012,08,14,16,30,24.10
2012,08,14,16,31,24.10
2012,08,14,16,32,24.20
2012,08,14,16,33,24.30
2012,08,14,16,34,24.40
2012,08,14,16,35,24.50
2012,08,14,16,36,24.50
2012,08,14,16,37,24.60
2012,08,14,16,38,24.60
2012,08,14,16,39,24.50
2012,08,14,16,40,24.40
2012,08,14,16,41,24.40
2012,08,14,16,42,24.40
2012,08,14,16,43,24.40
2012,08,14,16,44,24.40
2012,08,14,16,45,24.30
2012,08,14,16,46,24.30
2012,08,14,16,47,24.30
2012,08,14,16,48,24.20
2012,08,14,16,49,24.20
2012,08,14,16,50,24.20
2012,08,14,16,51,24.10
2012,08,14,16,52,24.10
2012,08,14,16,53,24.10
2012,08,14,16,54,24.10
2012,08,14,16,55,24.10
2012,08,14,16,56,24.10
2012,08,14,16,57,24.10
2012,08,14,16,58,24.10
2012,08,14,16,59,24.10
2012,08,14,17,00,24.00
2012,08,14,17,01,24.00
2012,08,14,17,02,24.10
2012,08,14,17,03,24.10
2012,08,14,17,04,24.10
2012,08,14,17,05,24.10
2012,08,14,17,06,24.10
2012,08,14,17,07,24.10
2012,08,14,17,08,24.10
2012,08,14,17,09,24.10
2012,08,14,17,10,24.00
2012,08,14,17,11,23.90
2012,08,14,17,12,23.80
2012,08,14,17,13,23.80
2012,08,14,17,14,23.70
2012,08,14,17,15,23.60
2012,08,14,17,16,23.40
2012,08,14,17,17,23.40
2012,08,14,17,18,23.30
2012,08,14,17,19,23.30
2012,08,14,17,20,23.30
2012,08,14,17,21,23.30
2012,08,14,17,22,23.20
2012,08,14,17,23,23.10
2012,08,14,17,24,23.10
2012,08,14,17,25,23.00
2012,08,14,17,26,22.90
2012,08,14,17,27,22.90
2012,08,14,17,28,22.90
2012,08,14,17,29,22.90
2012,08,14,17,30,23.10
2012,08,14,17,31,23.10
2012,08,14,17,32,23.10
2012,08,14,17,33,23.10
2012,08,14,17,34,23.20
2012,08,14,17,35,23.30
2012,08,14,17,36,23.30
2012,08,14,17,37,23.30
2012,08,14,17,38,23.30
2012,08,14,17,39,23.30
2012,08,14,17,40,23.20
2012,08,14,17,41,23.20
2012,08,14,17,42,23.20
2012,08,14,17,43,23.30
2012,08,14,17,44,23.30
2012,08,14,17,45,23.30
2012,08,14,17,46,23.30
2012,08,14,17,47,23.30
2012,08,14,17,48,23.20
2012,08,14,17,49,23.20
2012,08,14,17,50,23.10
2012,08,14,17,51,23.10
2012,08,14,17,52,23.10
2012,08,14,17,53,23.10
2012,08,14,17,54,23.10
2012,08,14,17,55,23.10
2012,08,14,17,56,23.20
2012,08,14,17,57,23.20
2012,08,14,17,58,23.30
2012,08,14,17,59,23.30
2012,08,14,18,00,23.30
2012,08,14,18,01,23.30
2012,08,14,18,02,23.30
2012,08,14,18,03,23.30
2012,08,14,18,04,23.30
2012,08,14,18,05,23.30
2012,08,14,18,06,23.30
2012,08,14,18,07,23.30
2012,08,14,18,08,23.30
2012,08,14,18,09,23.30
2012,08,14,18,10,23.30
2012,08,14,18,11,23.30
2012,08,14,18,12,23.30
2012,08,14,18,13,23.20
2012,08,14,18,14,23.20
2012,08,14,18,15,23.20
2012,08,14,18,16,23.30
2012,08,14,18,17,23.20
2012,08,14,18,18,23.20
2012,08,14,18,19,23.10
2012,08,14,18,20,23.00
2012,08,14,18,21,22.90
2012,08,14,18,22,22.90
2012,08,14,18,23,22.90
2012,08,14,18,24,22.90
2012,08,14,18,25,22.90
2012,08,14,18,26,22.90